Tracking 29892 objects as of 21-Nov-2024
HD Live streaming from Space Station
objects crossing your sky now

ONEWEB-0438

Track ONEWEB-0438 now!
10-day predictions
ONEWEB-0438 is classified as:


NORAD ID: 51634
Int'l Code: 2022-012N
Perigee: 1,227.6 km
Apogee: 1,230.1 km
Inclination: 87.9 °
Period: 109.9 minutes
Semi major axis: 7599 km
RCS: Unknown
Launch date: February 10, 2022
Source: United Kingdom (UK)
Launch site: FRENCH GUIANA (FRGUI)
Your satellite tracking list
Your tracking list is empty




NASA's NSSDC Master Catalog

Two Line Element Set (TLE):
1 51634U 22012N   24325.50509262  .00000613  00000-0  17198-2 0  9999
2 51634  87.8895 150.5196 0001624  94.8424 265.2889 13.10376692134216
Source of the keplerian elements: AFSPC